軌道要素
Epoch 2012 Dec. 19.0 TT = JDT 2456280.5
T 2012 Dec. 4.11337 TT MPC
q 3.6277757 (2000.0) P Q
n 0.04937552 Peri. 229.52993 +0.55534867 -0.83133267
a 7.3585958 Node 186.84041 +0.80756093 +0.54534934
e 0.5070016 Incl. 10.53085 +0.19857795 +0.10714517
P 20.0
From 36 observations 2012 Oct. 20-2013 Feb. 3, mean residual 0".4.
|